www.pogodaiklimat.ru

Погода и климат >> Архив погоды >> Россия >> Якутия >> Себян-Кюель


ПОГОДА в Себян-Кюеле

  • Прогноз погоды в Себян-Кюеле
  • Монитор погоды в Себян-Кюеле
  • Климат города

АРХИВ ПОГОДЫ в Себян-Кюеле

Время (UTC), дата Ветер
(напр.,м/с)
 
Видим.   Явления Облачность Т
(С)
Тd
(С)
f
(%)
Тe
(С)
Тes
(С)
Комфортность P
(гПа)
Po
(гПа)
Тmin
(С)
Tmax
(С)
R
(мм)
S
(см)
06 17.03 З 3 50 км 3/0
[Ac trans]
-9.2 -21.4 36 -15 -13 1018.0 921.3
09 17.03 З 2 50 км 3/0
[Ac trans]
-10.8 -19.2 50 -15 -15 1019.0 921.7
12 17.03 штиль 0 50 км 3/0
[Ac trans]
-14.1 -22.2 50 -14 -18 1023.4 922.2 -8.2
15 17.03 штиль 0 50 км 4/0
[Ac trans]
-18.6 -19.2 95 -19 -19 1022.7 922.2
18 17.03 З 1 50 км 4/0
[Ac trans Ci fib]
-23.8 -24.4 95 -27 -27 1026.7 923.8
21 17.03 З 2 50 км 4/0
[Ac trans Ci fib]
-27.4 -27.9 95 -34 -34 опасность
обморожения
1029.3 924.7
00 18.03 З 2 50 км ясно -14.8 -19.9 65 -20 -18 1025.5 926.2 -28.4 33
03 18.03 З 3 50 км 5/0
[Ci]
-12.2 -19.4 55 -18 -15 1025.0 926.8
06 18.03 З 2 50 км 9/0
[Cs]
-12.6 -19.8 55 -17 -15 1025.5 927.0
09 18.03 З 2 50 км 10/0
[Ac trans]
-12.1 -19.3 55 -17 -17 1025.9 927.5
12 18.03 З 1 50 км 10/0 2000 м
[As trans]
-12.2 -18.4 60 -14 -14 1026.7 928.2 -11.2
15 18.03 СЗ 1 50 км 10/0
[As trans]
-12.8 -18.0 65 -15 -15 1026.4 927.8
18 18.03 СЗ 1 50 км 10/0 2000 м
[As trans]
-13.0 -15.7 80 -15 -15 1025.7 927.0
21 18.03 штиль 0 50 км 10/0
[As op]
-17.4 -20.8 75 -17 -17 1027.5 927.1
00 19.03 штиль 0 50 км 10/8 600 м
[Sc Ac trans]
-13.4 -17.7 70 -13 -13 1026.0 927.1 -18.2 30
03 19.03 З 2 50 км 10/4 600 м
[Sc Ac trans]
-9.8 -17.7 52 -14 -13 1024.0 926.7
06 19.03 З 3 50 км 8/4 600 м
[Sc Ac trans]
-8.6 -15.7 56 -14 -13 1023.0 926.1
09 19.03 ЮЗ 2 50 км 3/0
[Ac trans]
-10.2 -16.5 60 -15 -15 1024.1 926.5
12 19.03 штиль 0 50 км 3/0 2000 м
[Ac trans]
-21.9 -23.1 90 -22 -22 1029.8 927.3 -7.5
15 19.03 З 1 50 км ясно -24.6 -25.1 96 -28 -28 1031.8 928.1
18 19.03 штиль 0 50 км ясно -25.8 -26.4 95 -26 -26 1032.3 928.1
21 19.03 СЗ 1 50 км 3/0
[Ac trans]
-25.2 -25.8 95 -29 -29 1032.3 928.3
00 20.03 З 1 50 км ясно -18.8 -19.4 95 -22 -20 1029.3 928.2 -26.2 30
03 20.03 З 2 50 км ясно -8.6 -15.7 56 -13 -9 1024.7 927.7
06 20.03 З 2 50 км ясно -6.0 -14.5 51 -10 -7 1023.0 927.0
09 20.03 З 3 50 км 4/0
[Ci]
-8.0 -14.2 61 -14 -14 1023.9 927.1
12 20.03 штиль 0 50 км ясно -19.0 -20.2 90 -19 -19 1029.2 928.0 -0.2
15 20.03 штиль 0 50 км ясно -21.3 -21.9 95 -21 -21 1030.5 928.4
18 20.03 штиль 0 50 км ясно -23.6 -24.2 95 -24 -24 1031.6 928.4
21 20.03 штиль 0 50 км ясно -24.5 -25.7 90 -25 -25 1032.4 928.8
00 21.03 З 2 50 км ясно -19.8 -20.4 95 -26 -24 1030.4 928.7 -25.4 30
03 21.03 50 км ясно -8.4 -16.0 54 1024.1 927.1
06 21.03 50 км ясно -4.2 -14.3 45 1020.8 925.6
09 21.03 50 км 3/0
[Ac trans]
-7.4 -12.8 65 1021.0 924.7
12 21.03 50 км 5/0 2000 м
[Ac trans Ci fib]
-16.4 -17.7 90 1024.8 924.9 -1.8
15 21.03 50 км 5/0
[Ac trans Ci fib]
-20.3 -20.3 100 1026.2 924.7
18 21.03 50 км ясно -23.4 -23.4 100 1027.3 924.5
21 21.03 50 км ясно -24.5 -24.6 99 1027.8 924.5
00 22.03 50 км ясно -17.2 -18.4 90 1024.1 924.1 -25.2 30
03 22.03 50 км ясно -5.2 -14.9 46 1018.6 923.3
06 22.03 50 км ясно -4.5 -14.3 46 1017.8 922.9
09 22.03 50 км 5/0
[Ci fib]
-8.2 -15.7 55 1020.7 924.2
12 22.03 50 км ясно -17.6 -18.8 90 1026.7 926.3 -3.0
15 22.03 50 км ясно -17.6 -18.8 90 1026.7 926.3 -3.0
18 22.03 50 км ясно -22.3 -22.3 100 1030.6 928.0
21 22.03 50 км 8/0
[Cs]
-24.0 -24.6 95 1032.0 928.7
00 23.03 50 км 8/0
[Ci fib]
-18.2 -18.8 95 1029.6 928.6 -25.4 29
03 23.03 50 км 3/0
[Ci fib]
-7.2 -20.5 34 1023.5 927.0
06 23.03 50 км 8/0
[Ci fib]
-5.8 -14.8 49 1021.0 925.2
09 23.03 50 км 10/0
[Ac trans Ci fib]
-8.8 -16.0 56 1021.6 924.7
12 23.03 50 км 10/0 2000 м
[Ac trans Ci fib]
-17.6 -18.8 90 1025.1 924.7 -3.6
15 23.03 50 км 8/0
[Ci fib]
-22.0 -22.0 100 1026.2 924.1
18 23.03 50 км 8/0
[Ci fib]
-22.4 -22.4 100 1025.7 923.5
21 23.03 50 км 4/0
[Ci fib]
-24.8 -24.8 100 1026.2 923.0
00 24.03 50 км ясно -17.0 -18.3 90 1022.4 922.7 -24.7 28

 

Местоположение метеостанции Себян-Кюель (Якутия, Россия): широта 65.30 долгота 130.00 высота над уровнем моря 777 м.

В архиве по умолчанию представлена погода в Себян-Кюеле за последнюю неделю. Архивные данные за месяц целиком и за предыдущие месяцы, начиная с января 2011 года, Вы можете получить, выбрав интересующий диапазон дат из раскрывающегося списка и нажав кнопку "Ввод!".

Внимание! Время в таблицах - всемирное. Для получения местного времени необходимо прибавить поправку, которая в Себян-Кюеле равна 9 ч.

Смотрите также архив погоды в соседних городах и на ближайших метеорологических станциях:

Погода в Сеген-Кюели (Якутия, Россия) (145 км)
Погода в Екюччю (Якутия, Россия) (179 км)
Погода в Сангаре (Якутия, Россия) (195 км)
Погода в Батамае (Якутия, Россия) (200 км)
Погода в Сого-Хае (Якутия, Россия) (205 км)
Погода в Верхоянском Перевозе (Якутия, Россия) (240 км)
Погода в Иэме (Якутия, Россия) (269 км)
Погода в Бестяхской Звероферме (Якутия, Россия) (274 км)
Погода в Батагай-Алыте (Якутия, Россия) (276 км)
Погода в Намцах (Якутия, Россия) (288 км)

Пояснения к столбцам:

Ветер - указаны скорость ветра в м/с - средняя за 10 мин, порывы в срок и между сроками (в фигурных скобках) и направление, откуда дует ветер: С - северный, СВ - северо-восточный, В - восточный, ЮВ - юго-восточный, Ю - южный, ЮЗ - юго-западный, З - западный, СЗ - северо-западный.
Видимость - горизонтальная дальность видимости в метрах или километрах. При видимости от 1 до 10 км при отсутствии осадков обычно наблюдается дымка, при ухудшении видимости до 1 км и менее - туман. В сухую погоду видимость может ухудшаться дымом, пылью или мглою.
Явления - указаны атмосферные явления, наблюдавшиеся в срок или в последний час перед сроком; фигурными скобками обозначены явления, наблюдавшиеся между сроками (за 1-3 часа до срока); квадратными скобками обозначены град или гололедные отложения с указанием их диаметра в мм.
Облачность - указаны через наклонную черту общая и нижняя облачность в баллах и высота нижней границы облаков в метрах; квадратными скобками обозначены формы облаков: Ci - перистые, Cs - перисто-слоистые, Cc - перисто-кучевые, Ac - высококучевые, As - высокослоистые, Sc - слоисто-кучевые, Ns - слоисто-дождевые, Cu - кучевые, Cb - кучево-дождевые. Подробнее классификацию облаков см. в Атласе облаков (PDF).
T - Температура воздуха - температура, измеренная на высоте 2 м над землей.
Td - Температура точки росы - температура, при понижении до которой содержащийся в воздухе водяной пар достигнет насыщения.
f - Относительная влажность воздуха - влажноcть воздуха, измеренная на высоте 2 м над землей.
Te - Эффективная температура - температура, которую ощущает одетый по сезону человек в тени. Характеристика душности погоды. При расчете учитывается влияние влажности воздуха и скорости ветра на теплоощущения человека.
Tes - Эффективная температура на солнце - температура, которую ощущает человек, с поправкой на солнечный нагрев. Характеристика знойности погоды. Зависит от высоты солнца над горизонтом, облачности и скорости ветра. Ночью, в пасмурную погоду, а также при ветре 12 м/с и более поправка равна нулю.
P - Атмосферное давление - приведенное к уровню моря атмосферное давление.
Po - Атмосферное давление - измеренное на уровне метеостанции атмосферное давление.
Tmin - Минимальная температура - минимум температуры воздуха на высоте 2 м над землей.
Tmax - Максимальная температура - максимум температуры воздуха на высоте 2 м над землей.
R - Количество осадков - Количество выпавших осадков, мм. При наведении курсора мыши на число - период времени, за который выпало указанное количество осадков.
S - Снежный покров - Высота снежного покрова, см. При наведении курсора мыши на число - состояние снежного покрова и степень покрытия местности в баллах.